Miami, FL

10:36 AM EST en Diciembre 19, 2018 (GMT -0500)
Miami International

Tiempo Historia de KMIA - Enero, 2018

Change the Weather History Date:

Sábado, Enero 13, 2018

  Actual Average Record
Temperature  
Temperatura media 67 ° F 68 ° F  
Temperatura máxima 76 ° F 76 ° F 84 ° F (1993)
Temperatura mínima 58 ° F 60 ° F 32 ° F (1981)
Degree Days  
Grados día de calefacción 0 2  
Month to date heating degree days 34 26  
Since 1 July heating degree days 62 63  
Cooling Degree Days 2 5  
Month to date cooling degree days 52 65  
Year to date cooling degree days 52 65  
Growing Degree Days 18 (Base 50)    
Moisture  
Punto de rocío 60 ° F    
Average Humidity 73    
Maximum Humidity 93    
Minimum Humidity 53    
Precipitación  
Precipitación T pul 0.05 pul 1.57 pul (1948)
Month to date precipitation 0.91 0.66  
Year to date precipitation 0.91 0.66  
Nieve  
Nieve 0.00 pul - - ()
Month to date snowfall 0.0  
Since 1 July snowfall 0.0  
Grosos de nieve 0.00 pul    
Presión al nivel del mar  
Presión al nivel del mar 30.10 pul    
Viento  
Velocidad del viento 7 mph (ONO)    
Velocidad máxima del viento 15 mph    
Max Gust Speed 21 mph    
Visibilidad 10 Millas    
Eventos      
T = Trace of Precipitation, MM = Missing Value Source: NWS Daily Summary

Daily Weather History Graph

Daily Weather History Graph

Search for Another Location

Airport or City:

Astronomía

Jan. 13, 2018 Salida Puesta
Hora real 7:09 AM EST 5:50 PM EST
Crepúsculo civil 6:44 AM EST 6:15 PM EST
Crepúsculo náutico 6:16 AM EST 6:43 PM EST
Crepúsculo astronómico 5:48 AM EST 7:11 PM EST
Luna 4:14 AM EST (1/13) 3:21 PM EST (1/13)
Horas de luz 11h 30m
Horas de luz
10h 40m
Creciente menguante, 10% of the Moon is Illuminated
Ene 13
Creciente menguante
Ene 16
Nueva
Ene 24
Cuarto creciente
Ene 31
Luna llena
Feb 7
Cuarto menguante

Hourly Weather History & Observations

Hora (EST) Temp. Punto de rocío Humedad Presión Visibilidad Wind Dir Velocidad del viento Velocidad de ráfagas Precip Eventos Condiciones
12:07 AM 73.0 ° F 69.1 ° F 87% 30.01 pul 10.0 mi OSO 4.6 mph - N/A   Nublado
12:44 AM 73.0 ° F 69.1 ° F 87% 30.01 pul 10.0 mi Oeste 4.6 mph - N/A   Nublado
12:53 AM 73.0 ° F 69.1 ° F 87% 30.01 pul 10.0 mi Oeste 3.5 mph - N/A   Nublado
1:53 AM 72.0 ° F 69.1 ° F 91% 30.01 pul 10.0 mi Oeste 4.6 mph - 0.00 pul   Nublado
2:53 AM 71.1 ° F 68.0 ° F 90% 30.01 pul 10.0 mi Oeste 4.6 mph - N/A   Nublado
3:53 AM 71.1 ° F 66.9 ° F 87% 30.01 pul 10.0 mi NO 6.9 mph - N/A   Nublado
4:53 AM 70.0 ° F 64.9 ° F 84% 30.02 pul 10.0 mi NO 10.4 mph - N/A   Nubes dispersas
5:53 AM 69.1 ° F 64.0 ° F 84% 30.05 pul 10.0 mi ONO 3.5 mph - N/A   Muy nublado
6:53 AM 69.1 ° F 60.1 ° F 73% 30.07 pul 10.0 mi NO 6.9 mph - N/A   Nublado
7:53 AM 69.1 ° F 60.1 ° F 73% 30.09 pul 10.0 mi ONO 3.5 mph - N/A   Nublado
8:53 AM 69.1 ° F 60.1 ° F 73% 30.11 pul 10.0 mi Oeste 6.9 mph - N/A   Nubes dispersas
9:53 AM 72.0 ° F 57.0 ° F 59% 30.13 pul 10.0 mi NO 9.2 mph - N/A   Parcialmente nublado
10:53 AM 73.0 ° F 57.0 ° F 57% 30.12 pul 10.0 mi Oeste 8.1 mph 17.3 mph N/A   Parcialmente nublado
11:53 AM 73.9 ° F 55.9 ° F 53% 30.11 pul 10.0 mi Variable 6.9 mph - N/A   Parcialmente nublado
12:53 PM 73.9 ° F 57.0 ° F 55% 30.10 pul 10.0 mi ONO 8.1 mph - N/A   Nubes dispersas
1:53 PM 75.9 ° F 57.0 ° F 52% 30.07 pul 10.0 mi Oeste 6.9 mph - N/A   Nubes dispersas
2:53 PM 75.9 ° F 57.0 ° F 52% 30.07 pul 10.0 mi Variable 5.8 mph - N/A   Nubes dispersas
3:53 PM 75.0 ° F 57.0 ° F 53% 30.08 pul 10.0 mi ONO 8.1 mph - N/A   Muy nublado
4:53 PM 73.0 ° F 55.9 ° F 55% 30.09 pul 10.0 mi ONO 5.8 mph - N/A   Muy nublado
5:53 PM 72.0 ° F 55.0 ° F 55% 30.11 pul 10.0 mi NO 6.9 mph - N/A   Muy nublado
6:53 PM 69.1 ° F 55.9 ° F 63% 30.14 pul 10.0 mi NNO 10.4 mph - N/A   Muy nublado
7:53 PM 66.0 ° F 54.0 ° F 65% 30.18 pul 10.0 mi NNO 10.4 mph 17.3 mph N/A   Muy nublado
8:53 PM 64.0 ° F 54.0 ° F 70% 30.20 pul 10.0 mi NNO 8.1 mph - N/A   Nubes dispersas
9:53 PM 63.0 ° F 53.1 ° F 70% 30.22 pul 10.0 mi Variable 6.9 mph - N/A   Nubes dispersas
10:53 PM 61.0 ° F 52.0 ° F 72% 30.23 pul 10.0 mi NNO 10.4 mph 16.1 mph N/A   Nubes dispersas
11:53 PM 59.0 ° F 52.0 ° F 78% 30.23 pul 10.0 mi NO 10.4 mph 19.6 mph N/A   Nubes dispersas